Simultaneous Nadir Overpasses (SNOs) Predictions

Prediction of SNOs between GOES-16 and METOP-C Satellite Orbit:

Table of predicted SNOs for the next 14.0 days since TLE Epoch: 5/9/2025
Index Date Time (GOES-16) GOES-16 Lat,Lon METOP-C Lat,Lon Distance(km) Time Diff (sec)
1 05/11/2025 03:39:27 -0.07, -90.88 -0.28, -91.82 107.46 80
2 05/13/2025 15:35:07 0.06, -92.21 -0.09, -91.46 85.47 80
3 05/15/2025 03:56:52 -0.05, -92.97 -0.76, -96.09 355.72 80
4 05/16/2025 03:33:35 -0.05, -93.49 0.47, -91.13 268.80 80
5 05/17/2025 15:55:11 0.04, -94.30 0.37, -95.73 162.72 80
6 05/18/2025 15:31:55 0.04, -94.82 -0.87, -90.77 461.93 80
7 05/20/2025 03:50:59 -0.04, -95.58 0.02, -95.40 21.22 80
8 05/21/2025 16:12:35 0.03, -96.41 0.81,-100.01 409.74 80
9 05/22/2025 15:49:18 0.03, -96.92 -0.37, -95.03 215.39 80
